[[{"header":{"parameterUnit":"m.s-1","parameterCategory":1,"la1":30.2991,"la2":30.254,"lo1":-89.0895,"lo2":-89.0444,"dy":0.0017,"dx":0.0017,"nx":28,"ny":28,"refTime":"2024-05-29T09:00:00:Z","depth":0,"parameterNumber":2,"parameterNumberName":"U-component_of_WINDS"},"data":[0,0,0,0,0,0,0,0,0,0,0,0,0,0,0,0,0,0,0,0,0,0,0,0,0,0,0,0,0,0,0,0,0,0,0,0,0,0,0,0,0,0,0,0,0,0,0,0,0,0,0,0,0,0,0,0,0,0,-1.8188,-1.8188,0,-1.82,-1.82,-1.82,-1.8172,-1.8171,-1.817,-1.817,-1.8182,-1.8183,-1.8184,0,0,0,0,0,0,0,0,0,0,0,0,0,-1.8142,-1.8143,-1.8188,-1.8188,-1.8189,-1.82,-1.82,-1.82,-1.8172,-1.8171,-1.817,-1.8169,-1.8181,-1.8183,-1.8184,0,0,0,0,0,0,0,0,0,0,0,0,0,-1.8159,-1.8143,-1.8188,-1.8176,-1.8175,-1.82,-1.82,-1.82,-1.8173,-1.8171,-1.817,-1.8169,-1.8181,-1.8183,-1.8184,-1.8222,0,0,-1.819,-1.819,0,0,0,0,0,0,0,0,-1.8158,-1.816,-1.8178,-1.8177,-1.8176,-1.8183,-1.8188,-1.8208,-1.8173,-1.8173,-1.8169,-1.8168,-1.8183,-1.8185,-1.819,-1.8222,-1.8223,-1.819,-1.8191,-1.8191,-1.8192,0,0,0,0,0,0,0,-1.8156,-1.816,-1.8193,-1.8178,-1.8177,-1.817,-1.8171,-1.8192,-1.8186,-1.8173,-1.8171,-1.8173,-1.8183,-1.8188,-1.819,-1.8223,-1.819,-1.8191,-1.8192,-1.8193,-1.8286,-1.8288,0,0,0,0,0,0,-1.8157,-1.8159,-1.8193,-1.8193,-1.8163,-1.8172,-1.8173,-1.8182,-1.8185,-1.8185,-1.8174,-1.8172,-1.8186,-1.8188,-1.819,-1.8234,-1.8191,-1.8193,-1.8194,-1.8285,-1.8287,-1.8288,0,0,0,0,0,0,-1.8156,-1.816,-1.8192,-1.8175,-1.8179,-1.8174,-1.8185,-1.8183,-1.8189,-1.8186,-1.8185,-1.8181,-1.8185,-1.8188,-1.8214,-1.8234,-1.8194,-1.8195,-1.8283,-1.8285,-1.8287,-1.8322,0,0,0,0,0,0,-1.8155,-1.816,-1.8174,-1.8176,-1.818,-1.8216,-1.8186,-1.8184,-1.8192,-1.8189,-1.8192,-1.8192,-1.8184,-1.8212,-1.8216,-1.8236,-1.8197,-1.8281,-1.8284,-1.8287,-1.8319,-1.8325,-1.833,0,0,0,0,0,-1.8153,-1.8184,-1.8175,-1.8179,-1.8198,-1.8217,-1.8219,-1.821,-1.8194,-1.8208,-1.8206,-1.8191,-1.8231,-1.8214,-1.8219,-1.824,-1.828,-1.8283,-1.8286,-1.8316,-1.8324,-1.833,0,0,0,0,0,0,-1.8184,-1.8184,-1.8174,-1.8206,-1.8212,-1.8212,-1.823,-1.8218,-1.8229,-1.8225,-1.8213,-1.8214,-1.8243,-1.8244,-1.8225,-1.8276,-1.8253,-1.8257,-1.8274,-1.8281,-1.8286,-1.8285,-1.8198,0,0,0,0,0,-1.8195,-1.8211,-1.8209,-1.8237,-1.8241,-1.8235,-1.8243,-1.8235,-1.8241,-1.8243,-1.8243,-1.8249,-1.8263,-1.8272,-1.8284,-1.8319,-1.8319,-1.8335,-1.8341,-1.8346,-1.8349,-1.8367,-1.8374,-1.8299,-1.8299,-1.8299,0,0,-1.8217,-1.8218,-1.8229,-1.8244,-1.8247,-1.8263,-1.8237,-1.8255,-1.8267,-1.8246,-1.827,-1.8271,-1.8276,-1.8307,-1.832,-1.8309,-1.837,-1.835,-1.8353,-1.8355,-1.8371,-1.8378,-1.8385,-1.8301,-1.8301,-1.83,0,0,-1.8265,-1.8268,-1.8292,-1.8296,-1.8301,-1.8297,-1.8303,-1.8305,-1.8304,-1.8329,-1.8313,-1.8327,-1.8351,-1.8356,-1.8361,-1.8411,-1.8398,-1.8416,-1.8445,-1.8462,-1.8468,-1.8473,-1.8491,-1.8497,-1.8419,-1.8419,-1.842,0,-1.8292,-1.8316,-1.8305,-1.8325,-1.8332,-1.8313,-1.8336,-1.8341,-1.835,-1.8355,-1.8342,-1.8372,-1.8374,-1.8405,-1.8418,-1.8423,-1.8429,-1.8415,-1.8468,-1.8473,-1.8478,-1.8494,-1.8501,-1.8422,-1.8421,-1.8421,-1.8421,0,-1.8348,-1.8365,-1.8383,-1.8393,-1.8401,-1.8423,-1.8416,-1.8426,-1.8418,-1.8415,-1.844,-1.8443,-1.8455,-1.8462,-1.8454,-1.8492,-1.8484,-1.847,-1.8446,-1.8487,-1.8502,-1.8509,-1.8424,-1.8424,-1.8423,-1.8423,0,0,-1.8416,-1.8419,-1.8426,-1.843,-1.8435,-1.8447,-1.8468,-1.848,-1.8489,-1.8496,-1.8513,-1.8534,-1.852,-1.8527,-1.8519,-1.8535,-1.8574,-1.8518,-1.8518,-1.8528,-1.8615,-1.8625,-1.8633,-1.8565,-1.8566,-1.8567,-1.8614,0,-1.8463,-1.8499,-1.849,-1.8525,-1.854,-1.8522,-1.854,-1.8545,-1.8543,-1.8556,-1.8553,-1.8568,-1.8549,-1.8553,-1.8568,-1.8566,-1.8591,-1.8562,-1.8581,-1.8581,-1.8579,-1.8641,-1.8652,-1.8696,-1.862,-1.8621,-1.8622,0,-1.8523,-1.8533,-1.8569,-1.8571,-1.8577,-1.8593,-1.8603,-1.8616,-1.8621,-1.8618,-1.8625,-1.8615,-1.8635,-1.8612,-1.8639,-1.862,-1.8627,-1.8627,-1.8629,-1.863,-1.8604,-1.8643,-1.871,-1.8717,-1.8631,-1.863,-1.863,0,-1.8569,-1.859,-1.8615,-1.8619,-1.8622,-1.8633,-1.8635,-1.8639,-1.8646,-1.8655,-1.866,-1.8672,-1.8678,-1.8687,-1.868,-1.8663,-1.8708,-1.8685,-1.8706,-1.8707,-1.8716,-1.8716,-1.8785,-1.8722,-1.8722,-1.8722,-1.8721,0,-1.8622,-1.8645,-1.8635,-1.865,-1.8675,-1.8665,-1.869,-1.869,-1.8693,-1.8708,-1.8693,-1.8707,-1.8697,-1.871,-1.8704,-1.8728,-1.8731,-1.8729,-1.8727,-1.873,-1.8731,-1.8734,-1.8731,-1.8723,-1.8723,-1.8723,-1.8722,0,-1.8678,-1.8672,-1.8697,-1.8697,-1.8698,-1.8716,-1.8717,-1.8731,-1.8728,-1.8746,-1.875,-1.8745,-1.876,-1.8753,-1.8769,-1.8765,-1.8795,-1.879,-1.8794,-1.8792,-1.8814,-1.8812,-1.8888,-1.8897,-1.8828,-1.8829,-1.883,0,-1.8712,-1.8729,-1.8731,-1.874,-1.8742,-1.8757,-1.8764,-1.8755,-1.8763,-1.877,-1.8783,-1.8796,-1.8806,-1.8831,-1.8829,-1.884,-1.8835,-1.886,-1.8836,-1.8838,-1.8834,-1.8833,-1.8835,-1.8865,-1.8866,-1.8867,-1.8867,0,-1.8774,-1.877,-1.8781,-1.8792,-1.8801,-1.8809,-1.8816,-1.8824,-1.8814,-1.8825,-1.8839,-1.8847,-1.8863,-1.8876,-1.8886,-1.8888,-1.8876,-1.8875,-1.888,-1.8883,-1.8885,-1.8884,-1.8806,-1.8873,-1.8872,-1.8872,-1.8872,-1.8871,-1.8819,-1.8833,-1.8837,-1.885,-1.8854,-1.886,-1.8873,-1.8871,-1.8883,-1.8895,-1.8889,-1.8906,-1.891,-1.8923,-1.8926,-1.8939,-1.8929,-1.8937,-1.8939,-1.8941,-1.8944,-1.8883,-1.8941,-1.8941,-1.8941,-1.894,-1.894,0,-1.888,-1.8881,-1.8893,-1.8903,-1.8913,-1.8901,-1.8907,-1.8917,-1.8932,-1.8936,-1.8947,-1.8963,-1.8976,-1.8975,-1.8986,-1.8997,-1.8992,-1.9001,-1.8999,-1.9,-1.8953,-1.8946,-1.9005,-1.9005,-1.9005,-1.9004,-1.9004,-1.9004,-1.8913,-1.8936,-1.8932,-1.8957,-1.8958,-1.8974,-1.8979,-1.8985,-1.8988,-1.9008,-1.9018,-1.9017,-1.9019,-1.9031,-1.9042,-1.9041,-1.9046,-1.9057,-1.9054,-1.901,-1.9003,-1.8997,-1.8991,-1.9058,-1.9058,-1.91,-1.9101,-1.9101]},{"header":{"parameterUnit":"m.s-1","parameterCategory":1,"la1":30.2991,"la2":30.254,"lo1":-89.0895,"lo2":-89.0444,"dy":0.0017,"dx":0.0017,"nx":28,"ny":28,"refTime":"2024-05-29T09:00:00:Z","depth":0,"parameterNumber":3,"parameterNumberName":"V-component_of_WINDS"},"data":[0,0,0,0,0,0,0,0,0,0,0,0,0,0,0,0,0,0,0,0,0,0,0,0,0,0,0,0,0,0,0,0,0,0,0,0,0,0,0,0,0,0,0,0,0,0,0,0,0,0,0,0,0,0,0,0,0,0,4.1365,4.1365,0,4.1379,4.1379,4.1379,4.1312,4.1311,4.1309,4.1307,4.1318,4.132,4.1323,0,0,0,0,0,0,0,0,0,0,0,0,0,4.128,4.1282,4.1365,4.1365,4.1366,4.1378,4.1379,4.1379,4.1313,4.131,4.1308,4.1306,4.1318,4.132,4.1323,0,0,0,0,0,0,0,0,0,0,0,0,0,4.1308,4.1283,4.1365,4.1334,4.1332,4.1378,4.1379,4.1379,4.1313,4.131,4.1308,4.1305,4.1317,4.132,4.1323,4.14,0,0,4.1333,4.1334,0,0,0,0,0,0,0,0,4.1306,4.1311,4.1339,4.1336,4.1334,4.1341,4.1353,4.1386,4.1314,4.132,4.1307,4.1303,4.1328,4.133,4.1339,4.14,4.1401,4.1333,4.1335,4.1336,4.1337,0,0,0,0,0,0,0,4.1304,4.131,4.137,4.1339,4.1336,4.1319,4.132,4.1359,4.134,4.1319,4.1315,4.1317,4.1326,4.1336,4.1339,4.1401,4.1333,4.1336,4.1338,4.1339,4.1524,4.1527,0,0,0,0,0,0,4.1307,4.1309,4.137,4.1371,4.1313,4.1323,4.1323,4.1341,4.1339,4.1336,4.132,4.1314,4.1332,4.1335,4.1339,4.1427,4.1336,4.1339,4.1341,4.1521,4.1525,4.1528,0,0,0,0,0,0,4.1305,4.1313,4.1369,4.1339,4.1344,4.1327,4.1348,4.1343,4.1353,4.134,4.1336,4.1333,4.133,4.1334,4.1385,4.1426,4.134,4.1343,4.1518,4.1522,4.1527,4.1605,0,0,0,0,0,0,4.1303,4.1313,4.1342,4.134,4.1346,4.1416,4.135,4.1346,4.1359,4.1352,4.1351,4.1349,4.1328,4.1381,4.1388,4.1429,4.1346,4.1514,4.152,4.1525,4.1598,4.1611,4.1623,0,0,0,0,0,4.13,4.1364,4.1344,4.1352,4.1383,4.1419,4.1422,4.1398,4.1362,4.1391,4.1383,4.1349,4.1421,4.1386,4.1394,4.1437,4.1511,4.1518,4.1525,4.1593,4.1609,4.1622,0,0,0,0,0,0,4.1371,4.1363,4.1341,4.1406,4.1414,4.1407,4.1443,4.1416,4.1433,4.1426,4.1394,4.1395,4.145,4.1449,4.141,4.151,4.146,4.1469,4.1509,4.1524,4.1536,4.1534,4.1348,0,0,0,0,0,4.1395,4.1425,4.1416,4.1474,4.1479,4.1461,4.1475,4.1456,4.1462,4.1465,4.146,4.1467,4.1491,4.1508,4.153,4.1599,4.1596,4.1632,4.1644,4.1654,4.1661,4.1696,4.1711,4.1551,4.1551,4.1551,0,0,4.1443,4.1442,4.1463,4.1488,4.1492,4.1523,4.1464,4.15,4.1522,4.147,4.1517,4.1514,4.152,4.158,4.1606,4.158,4.1705,4.1663,4.1671,4.1673,4.1705,4.172,4.1733,4.1555,4.1555,4.1554,0,0,4.1546,4.1549,4.1597,4.1602,4.1608,4.1596,4.1608,4.1606,4.1602,4.1649,4.161,4.1636,4.1679,4.1684,4.1692,4.1798,4.1766,4.1806,4.1868,4.1903,4.1915,4.1926,4.1962,4.1975,4.1814,4.1814,4.1814,0,4.1604,4.165,4.1625,4.1663,4.1674,4.163,4.1677,4.1683,4.1696,4.1705,4.1676,4.1728,4.1729,4.1789,4.1814,4.1823,4.1834,4.1805,4.1916,4.1926,4.1936,4.197,4.1984,4.1818,4.1818,4.1817,4.1817,0,4.1721,4.1754,4.1791,4.1805,4.1821,4.1864,4.1844,4.1863,4.1843,4.1833,4.188,4.188,4.19,4.1913,4.1894,4.197,4.1954,4.1921,4.1869,4.1957,4.1988,4.2,4.1825,4.1823,4.1822,4.1821,0,0,4.1868,4.1867,4.1882,4.1887,4.1891,4.1915,4.1955,4.1976,4.1992,4.2003,4.2035,4.2072,4.2042,4.2051,4.2032,4.2062,4.2143,4.2025,4.2025,4.2046,4.2225,4.2248,4.2264,4.2123,4.2126,4.2128,4.2224,0,4.1967,4.2036,4.2014,4.2084,4.2112,4.2071,4.2106,4.2111,4.2104,4.2126,4.2117,4.2144,4.2103,4.2108,4.2136,4.2128,4.2179,4.2121,4.2151,4.2153,4.2149,4.228,4.2305,4.2396,4.2236,4.2239,4.224,0,4.2092,4.2108,4.218,4.2179,4.219,4.2222,4.2238,4.2261,4.2266,4.2258,4.2269,4.2243,4.2281,4.2231,4.2283,4.2244,4.2255,4.2253,4.2256,4.2256,4.22,4.2282,4.2425,4.2438,4.2259,4.2258,4.2256,0,4.219,4.2229,4.2277,4.2283,4.2283,4.2306,4.2307,4.231,4.2323,4.2337,4.2345,4.2364,4.2373,4.2388,4.2367,4.2333,4.2422,4.237,4.2415,4.2415,4.2434,4.2432,4.2578,4.2445,4.2445,4.2444,4.2444,0,4.2302,4.2347,4.2321,4.235,4.2399,4.2374,4.2423,4.2419,4.2422,4.2449,4.2415,4.244,4.2413,4.2436,4.242,4.2464,4.247,4.2463,4.2458,4.2465,4.2466,4.2471,4.2463,4.2448,4.2447,4.2446,4.2446,0,4.2418,4.2403,4.2452,4.2448,4.2448,4.2484,4.248,4.2506,4.2496,4.2531,4.2538,4.2522,4.2547,4.2529,4.2554,4.2543,4.2601,4.2588,4.2599,4.2595,4.264,4.2635,4.2792,4.2811,4.2668,4.2669,4.267,0,4.249,4.2524,4.2523,4.2539,4.2542,4.2568,4.2582,4.2558,4.2573,4.2581,4.2606,4.2629,4.2646,4.2689,4.2679,4.2698,4.2684,4.2738,4.2686,4.2692,4.2682,4.268,4.2682,4.2747,4.2749,4.275,4.2751,0,4.2618,4.2608,4.2629,4.2648,4.2664,4.2678,4.2688,4.2703,4.2678,4.2697,4.2723,4.2736,4.2762,4.2784,4.28,4.2799,4.2771,4.2768,4.2779,4.2785,4.279,4.2786,4.2625,4.2764,4.2763,4.2762,4.2761,4.2761,4.2713,4.274,4.2744,4.2768,4.2773,4.2784,4.2808,4.2801,4.2822,4.2841,4.2826,4.2857,4.286,4.2878,4.2882,4.2905,4.2883,4.2899,4.2903,4.2907,4.2912,4.2788,4.2908,4.2907,4.2907,4.2907,4.2906,0,4.2837,4.2838,4.286,4.2876,4.2894,4.2867,4.2877,4.2894,4.2921,4.2928,4.2945,4.2974,4.2996,4.2988,4.3007,4.3027,4.3014,4.3032,4.303,4.303,4.2932,4.292,4.3042,4.3042,4.3042,4.3042,4.3042,4.3042,4.2904,4.2949,4.294,4.2987,4.2987,4.3016,4.3024,4.3033,4.3038,4.3072,4.309,4.3085,4.3085,4.3104,4.3122,4.3119,4.3127,4.315,4.3142,4.305,4.3037,4.3024,4.3012,4.3152,4.3152,4.3237,4.3238,4.3239]}]]